CW0214 Weather Reports


time (UTC)temp
C
wind
direction
speed
KPH
gust
KPH
rain 1hr
cm
rain 24hr
cm
rain mn
cm
humidity
%
barometer
mb
20260901080905 20 119 4.8 14.5 0.00 0.00 0.00 79 1019.7
20260901080405 20 158 3.2 16.1 0.00 0.00 0.00 79 1019.7
20260901075904 20 77 0.0 9.7 0.00 0.00 0.00 81 1019.7
20260901075405 19 121 1.6 19.3 0.00 0.00 0.00 81 1019.6
20260901074905 19 111 1.6 11.3 0.00 0.00 0.00 82 1019.6
20260901074405 18 147 1.6 12.9 0.00 0.00 0.00 83 1019.6
20260901073905 18 111 0.0 12.9 0.00 0.00 0.00 83 1019.4
20260901073405 18 126 3.2 12.9 0.00 0.00 0.00 84 1019.4
20260901072905 18 143 3.2 12.9 0.00 0.00 0.00 84 1019.4
20260901072405 18 153 3.2 22.5 0.00 0.00 0.00 85 1019.3
20260901071905 18 73 1.6 19.3 0.00 0.00 0.00 86 1019.3
20260901071405 18 170 3.2 16.1 0.00 0.00 0.00 87 1019.3
20260901070904 18 146 1.6 9.7 0.00 0.00 0.00 87 1019.3
20260901070405 18 92 1.6 14.5 0.00 0.00 0.00 87 1019.3
20260901064905 17 115 3.2 14.5 0.00 0.00 0.00 88 1019.2
20260901064405 17 165 0.0 12.9 0.00 0.00 0.00 88 1019.1
20260901063905 17 82 1.6 14.5 0.00 0.00 0.00 88 1019.2
20260901063405 17 72 4.8 14.5 0.00 0.00 0.00 88 1019.1
20260901062905 17 144 1.6 14.5 0.00 0.00 0.00 88 1019.2
20260901062405 17 75 8.0 29.0 0.00 0.00 0.00 88 1019.1
20260901061905 17 128 4.8 22.5 0.00 0.00 0.00 88 1019.0
20260901061405 17 102 0.0 19.3 0.00 0.00 0.00 88 1019.0
20260901060904 17 144 4.8 16.1 0.00 0.00 0.00 88 1018.9
20260901060404 17 109 0.0 11.3 0.00 0.00 0.00 88 1018.9
20260901055905 17 138 1.6 14.5 0.00 0.00 0.00 88 1018.9
20260901055405 17 71 1.6 11.3 0.00 0.00 0.00 88 1018.8
20260901054904 17 128 1.6 14.5 0.00 0.00 0.00 88 1018.8
20260901054405 17 94 4.8 19.3 0.00 0.00 0.00 88 1018.8
20260901052905 17 123 0.0 9.7 0.00 0.00 0.00 89 1018.7
20260901052405 17 106 4.8 19.3 0.00 0.00 0.00 89 1018.7
20260901051905 17 60 1.6 19.3 0.00 0.00 0.00 89 1018.7
20260901051405 17 127 1.6 14.5 0.00 0.00 0.00 89 1018.6
20260901050904 17 129 6.4 22.5 0.00 0.00 0.00 89 1018.7
20260901050405 17 83 3.2 11.3 0.00 0.00 0.00 89 1018.7
20260901045905 17 166 3.2 19.3 0.00 0.00 0.00 89 1018.7
20260901045404 17 125 3.2 16.1 0.00 0.00 0.00 89 1018.7
20260901044905 17 151 3.2 16.1 0.00 0.00 0.00 89 1018.8
20260901044404 17 151 3.2 12.9 0.00 0.00 0.00 89 1018.7
20260901043904 17 112 3.2 9.7 0.00 0.00 0.00 89 1018.7
20260901043405 17 174 8.0 16.1 0.00 0.00 0.00 89 1018.6
20260901042904 17 161 3.2 19.3 0.00 0.00 0.00 89 1018.6
20260901042405 17 92 4.8 16.1 0.00 0.00 0.00 89 1018.5
20260901041404 17 111 0.0 12.9 0.00 0.00 0.00 89 1018.6
20260901040904 17 105 0.0 12.9 0.00 0.00 0.00 90 1018.5
20260901040405 17 107 1.6 12.9 0.00 0.00 0.00 90 1018.6
20260901035905 16 98 3.2 12.9 0.00 0.00 0.00 90 1018.5
20260901035404 16 122 1.6 11.3 0.00 0.00 0.00 90 1018.5
20260901034405 16 136 1.6 20.9 0.00 0.00 0.00 90 1018.7
20260901033904 16 148 3.2 14.5 0.00 0.00 0.00 90 1018.7
20260901033404 16 137 1.6 12.9 0.00 0.00 0.00 90 1018.7
20260901032905 16 138 3.2 19.3 0.00 0.00 0.00 90 1018.7
20260901031905 16 109 1.6 20.9 0.00 0.00 0.00 89 1018.7
20260901030905 16 112 0.0 8.0 0.00 0.00 0.00 89 1018.7
20260901030404 16 78 0.0 8.0 0.00 0.00 0.00 89 1018.7
20260901025904 16 129 8.0 19.3 0.00 0.00 0.00 89 1018.7
20260901024905 16 81 1.6 14.5 0.00 0.00 0.00 89 1018.8
20260901024404 16 124 0.0 3.2 0.00 0.00 0.00 89 1018.7
20260901023905 16 124 3.2 12.9 0.00 0.00 0.00 88 1018.8
20260901023405 16 115 0.0 0.0 0.00 0.00 0.00 88 1018.8
20260901022904 16 115 3.2 19.3 0.00 0.00 0.00 88 1018.8
20260901021904 16 128 1.6 9.7 0.00 0.00 0.00 88 1018.8
20260901021404 17 111 1.6 9.7 0.00 0.00 0.00 88 1018.8
20260901020905 17 115 0.0 8.0 0.00 0.00 0.00 88 1018.9
20260901020404 17 96 0.0 9.7 0.00 0.00 0.00 88 1018.9
20260901015404 17 113 1.6 12.9 0.00 0.00 0.00 87 1019.0
20260901014904 17 125 0.0 9.7 0.00 0.00 0.00 87 1019.1
20260901014405 17 127 0.0 8.0 0.00 0.00 0.00 87 1019.1
20260901013904 17 123 1.6 19.3 0.00 0.00 0.00 87 1019.2
20260901013404 17 122 3.2 19.3 0.00 0.00 0.00 87 1019.2
20260901012904 17 125 3.2 16.1 0.00 0.00 0.00 87 1019.2
20260901012404 17 174 1.6 9.7 0.00 0.00 0.00 87 1019.3
20260901011905 17 154 3.2 14.5 0.00 0.00 0.00 87 1019.4
20260901011404 17 122 1.6 9.7 0.00 0.00 0.00 86 1019.3
20260901010904 17 131 1.6 9.7 0.00 0.00 0.00 86 1019.4
20260901010405 17 117 1.6 9.7 0.00 0.00 0.00 86 1019.4
20260901005904 17 99 1.6 9.7 0.00 0.00 0.00 86 1019.4
20260901004404 17 140 1.6 14.5 0.00 0.00 0.00 86 1019.7
20260901003905 17 149 1.6 16.1 0.00 0.00 0.00 86 1019.6
20260901003405 17 117 1.6 14.5 0.00 0.00 0.00 86 1019.5
20260901002905 17 194 0.0 8.0 0.00 0.00 0.00 86 1019.6
20260901002404 17 142 1.6 24.1 0.00 0.00 0.00 86 1019.5
20260901001905 17 124 4.8 24.1 0.00 0.00 0.00 86 1019.5
20260901001405 17 84 9.7 19.3 0.00 0.00 0.00 85 1019.6
20260901000905 17 160 6.4 19.3 0.00 0.00 0.00 85 1019.6
20260831235904 17 115 3.2 19.3 0.00 0.00 0.00 85 1019.6
20260831235404 17 129 1.6 12.9 0.00 0.00 0.00 85 1019.7
20260831234405 17 162 1.6 12.9 0.00 0.00 0.00 84 1019.7
20260831233904 17 149 3.2 14.5 0.00 0.00 0.00 84 1019.7
20260831233405 17 128 3.2 19.3 0.00 0.00 0.00 84 1019.7
20260831232905 17 131 3.2 14.5 0.00 0.00 0.00 84 1019.8
20260831232405 17 95 0.0 12.9 0.00 0.00 0.00 84 1019.8
20260831231904 17 139 4.8 19.3 0.00 0.00 0.00 84 1019.9
20260831230404 17 116 1.6 9.7 0.00 0.00 0.00 83 1019.9
20260831225404 17 117 3.2 16.1 0.00 0.00 0.00 82 1019.9
20260831224405 17 73 1.6 12.9 0.00 0.00 0.00 82 1020.0
20260831223904 17 141 1.6 11.3 0.00 0.00 0.00 82 1020.0
20260831223404 17 57 1.6 14.5 0.00 0.00 0.00 82 1020.0
20260831222905 17 71 3.2 19.3 0.00 0.00 0.00 82 1020.0
20260831221904 17 107 1.6 16.1 0.00 0.00 0.00 81 1020.0
20260831221404 17 137 4.8 29.0 0.00 0.00 0.00 81 1020.0
20260831220904 18 84 3.2 16.1 0.00 0.00 0.00 81 1020.0
20260831220404 18 105 3.2 25.7 0.00 0.00 0.00 81 1020.0
20260831215904 18 112 3.2 22.5 0.00 0.00 0.00 81 1020.0
20260831215404 18 82 8.0 19.3 0.00 0.00 0.00 80 1020.0
20260831214904 18 88 6.4 20.9 0.00 0.00 0.00 80 1020.0
20260831214405 18 83 1.6 24.1 0.00 0.00 0.00 79 1020.1
20260831213904 18 132 4.8 32.2 0.00 0.00 0.00 79 1020.0
20260831213404 18 115 6.4 19.3 0.00 0.00 0.00 79 1020.0
20260831212905 18 107 1.6 19.3 0.00 0.00 0.00 78 1020.0
20260831211904 18 135 4.8 16.1 0.00 0.00 0.00 77 1020.1
20260831211404 18 68 4.8 19.3 0.00 0.00 0.00 77 1020.0
20260831210908 18 36 0.0 9.7 0.00 0.00 0.00 76 1020.1
20260831210404 18 41 3.2 22.5 0.00 0.00 0.00 76 1020.0
20260831205905 18 127 4.8 20.9 0.00 0.00 0.00 76 1019.9
20260831205404 19 130 1.6 19.3 0.00 0.00 0.00 76 1019.9
20260831203905 19 101 4.8 16.1 0.00 0.00 0.00 74 1019.8
20260831202904 20 96 6.4 19.3 0.00 0.00 0.00 73 1019.8
20260831202405 20 111 4.8 22.5 0.00 0.00 0.00 73 1019.7
20260831201904 20 91 8.0 29.0 0.00 0.00 0.00 72 1019.7
20260831201404 20 139 3.2 16.1 0.00 0.00 0.00 71 1019.6
20260831200904 20 73 1.6 19.3 0.00 0.00 0.00 71 1019.6
20260831200404 20 111 1.6 16.1 0.00 0.00 0.00 70 1019.5
20260831195404 20 37 1.6 12.9 0.00 0.00 0.00 69 1019.6
20260831194904 20 170 1.6 22.5 0.00 0.00 0.00 68 1019.5
20260831194405 21 99 0.0 12.9 0.00 0.00 0.00 68 1019.4
20260831193904 21 139 1.6 19.3 0.00 0.00 0.00 66 1019.3
20260831193404 21 104 3.2 9.7 0.00 0.00 0.00 65 1019.3
20260831192905 21 98 3.2 16.1 0.00 0.00 0.00 64 1019.2
20260831192406 21 33 0.0 16.1 0.00 0.00 0.00 63 1019.1
20260831191906 21 120 4.8 19.3 0.00 0.00 0.00 62 1019.2
20260831190406 22 90 3.2 19.3 0.00 0.00 0.00 61 1019.1
20260831185905 22 128 1.6 14.5 0.00 0.00 0.00 61 1018.9
20260831185406 22 105 1.6 14.5 0.00 0.00 0.00 60 1018.8
20260831184905 23 125 4.8 24.1 0.00 0.00 0.00 60 1018.7
20260831184405 23 91 3.2 19.3 0.00 0.00 0.00 59 1018.7
20260831183906 23 137 3.2 19.3 0.00 0.00 0.00 58 1018.6
20260831183406 23 137 3.2 22.5 0.00 0.00 0.00 57 1018.7
20260831182405 24 89 1.6 20.9 0.00 0.00 0.00 56 1018.6
20260831181905 24 124 1.6 19.3 0.00 0.00 0.00 56 1018.6
20260831181405 24 110 4.8 25.7 0.00 0.00 0.00 55 1018.6
20260831180905 25 115 3.2 25.7 0.00 0.00 0.00 55 1018.6
20260831180406 25 80 0.0 16.1 0.00 0.00 0.00 54 1018.6
20260831175905 25 110 1.6 19.3 0.00 0.00 0.00 54 1018.6
20260831175406 25 117 3.2 16.1 0.00 0.00 0.00 53 1018.6
20260831174905 25 134 1.6 16.1 0.00 0.00 0.00 53 1018.6
20260831173905 25 101 1.6 14.5 0.00 0.00 0.00 52 1018.7
20260831173405 26 91 0.0 14.5 0.00 0.00 0.00 51 1018.6
20260831172905 26 104 4.8 32.2 0.00 0.00 0.00 50 1018.6
20260831172405 26 180 3.2 22.5 0.00 0.00 0.00 50 1018.7
20260831171405 26 107 1.6 16.1 0.00 0.00 0.00 49 1018.6
20260831170906 26 115 4.8 20.9 0.00 0.00 0.00 49 1018.7
20260831170405 26 94 1.6 16.1 0.00 0.00 0.00 49 1018.7
20260831165905 27 92 1.6 16.1 0.00 0.00 0.00 48 1018.6
20260831165405 27 56 3.2 16.1 0.00 0.00 0.00 47 1018.7
20260831164405 27 108 1.6 24.1 0.00 0.00 0.00 45 1018.6
20260831163405 27 123 1.6 12.9 0.00 0.00 0.00 43 1018.5
20260831162906 27 126 3.2 12.9 0.00 0.00 0.00 44 1018.5
20260831162405 27 47 3.2 19.3 0.00 0.00 0.00 43 1018.5
20260831161405 28 136 6.4 20.9 0.00 0.00 0.00 42 1018.5
20260831160405 28 118 3.2 16.1 0.00 0.00 0.00 39 1018.7
20260831155406 28 144 9.7 22.5 0.00 0.00 0.00 39 1018.8
20260831154905 28 100 1.6 16.1 0.00 0.00 0.00 40 1018.8
20260831154405 28 159 1.6 9.7 0.00 0.00 0.00 39 1018.7
20260831153905 28 94 1.6 11.3 0.00 0.00 0.00 38 1018.8
20260831153405 28 230 3.2 12.9 0.00 0.00 0.00 38 1018.8
20260831152905 28 69 1.6 11.3 0.00 0.00 0.00 38 1018.8
20260831152406 28 100 3.2 19.3 0.00 0.00 0.00 39 1018.8
20260831151405 28 0 1.6 12.9 0.00 0.00 0.00 37 1018.7
20260831150905 29 14 3.2 9.7 0.00 0.00 0.00 37 1018.7
20260831150405 29 82 8.0 24.1 0.00 0.00 0.00 38 1018.7
20260831145905 29 95 1.6 14.5 0.00 0.00 0.00 37 1018.8
20260831145405 29 103 3.2 19.3 0.00 0.00 0.00 37 1018.8
20260831144905 29 107 0.0 16.1 0.00 0.00 0.00 35 1018.8
20260831144405 29 343 1.6 16.1 0.00 0.00 0.00 35 1018.9
20260831143905 29 138 3.2 12.9 0.00 0.00 0.00 33 1018.9
20260831143406 29 76 3.2 12.9 0.00 0.00 0.00 34 1018.9
20260831142905 29 318 0.0 12.9 0.00 0.00 0.00 33 1018.9
20260831142405 29 88 1.6 11.3 0.00 0.00 0.00 32 1019.1
20260831141905 29 103 1.6 11.3 0.00 0.00 0.00 33 1019.1
20260831141405 29 79 9.7 22.5 0.00 0.00 0.00 32 1019.1
20260831140906 29 118 6.4 22.5 0.00 0.00 0.00 34 1019.2
20260831140405 29 73 1.6 14.5 0.00 0.00 0.00 35 1019.2
20260831135905 29 84 1.6 14.5 0.00 0.00 0.00 36 1019.1
20260831134905 29 122 3.2 12.9 0.00 0.00 0.00 37 1019.3
20260831134405 28 164 1.6 16.1 0.00 0.00 0.00 37 1019.2
20260831133905 28 106 4.8 19.3 0.00 0.00 0.00 38 1019.2
20260831133405 28 167 6.4 19.3 0.00 0.00 0.00 39 1019.3
20260831132905 28 115 4.8 22.5 0.00 0.00 0.00 39 1019.4
20260831132405 28 67 4.8 20.9 0.00 0.00 0.00 38 1019.4
20260831131906 28 125 1.6 19.3 0.00 0.00 0.00 39 1019.4
20260831125905 28 119 3.2 16.1 0.00 0.00 0.00 40 1019.5
20260831125405 28 117 3.2 12.9 0.00 0.00 0.00 38 1019.5
20260831124905 28 176 3.2 16.1 0.00 0.00 0.00 39 1019.6
20260831124405 28 208 3.2 12.9 0.00 0.00 0.00 38 1019.5
20260831123905 28 93 3.2 14.5 0.00 0.00 0.00 38 1019.7
20260831123405 28 112 3.2 11.3 0.00 0.00 0.00 38 1019.7
20260831122905 28 157 4.8 19.3 0.00 0.00 0.00 39 1019.7
20260831122405 28 147 3.2 19.3 0.00 0.00 0.00 39 1019.8
20260831121905 28 134 3.2 22.5 0.00 0.00 0.00 41 1019.9
20260831121405 28 172 6.4 16.1 0.00 0.00 0.00 41 1019.9
20260831120905 28 105 1.6 19.3 0.00 0.00 0.00 42 1020.0
20260831120405 27 321 0.0 8.0 0.00 0.00 0.00 42 1020.0
20260831115905 27 128 3.2 19.3 0.00 0.00 0.00 43 1020.0
20260831115405 27 107 0.0 4.8 0.00 0.00 0.00 43 1020.0
20260831114905 27 267 1.6 14.5 0.00 0.00 0.00 44 1020.1
20260831114405 27 107 3.2 14.5 0.00 0.00 0.00 44 1020.1
20260831113405 27 160 3.2 12.9 0.00 0.00 0.00 45 1020.3
20260831112905 27 52 0.0 4.8 0.00 0.00 0.00 46 1020.3
20260831112405 27 98 1.6 16.1 0.00 0.00 0.00 47 1020.4
20260831111905 26 110 3.2 19.3 0.00 0.00 0.00 47 1020.4
20260831111405 26 106 3.2 19.3 0.00 0.00 0.00 47 1020.4
20260831110905 27 105 1.6 19.3 0.00 0.00 0.00 47 1020.4
20260831110405 26 85 3.2 12.9 0.00 0.00 0.00 48 1020.4
20260831105905 26 167 0.0 14.5 0.00 0.00 0.00 47 1020.4
20260831105405 26 230 1.6 9.7 0.00 0.00 0.00 47 1020.4
20260831104405 26 134 1.6 9.7 0.00 0.00 0.00 51 1020.6
20260831103905 26 61 1.6 12.9 0.00 0.00 0.00 51 1020.6
20260831103405 25 118 3.2 11.3 0.00 0.00 0.00 52 1020.7
20260831102905 25 133 1.6 12.9 0.00 0.00 0.00 52 1020.7
20260831102405 25 98 1.6 11.3 0.00 0.00 0.00 53 1020.7
20260831101905 25 123 0.0 11.3 0.00 0.00 0.00 53 1020.7
20260831101405 25 142 1.6 12.9 0.00 0.00 0.00 54 1020.7
20260831100905 25 125 1.6 12.9 0.00 0.00 0.00 54 1020.7
20260831095905 25 143 0.0 11.3 0.00 0.00 0.00 55 1020.7
20260831095405 24 139 1.6 11.3 0.00 0.00 0.00 57 1020.7
20260831094905 23 157 0.0 9.7 0.00 0.00 0.00 59 1020.7
20260831094405 23 122 0.0 8.0 0.00 0.00 0.00 59 1020.7
20260831093905 23 144 0.0 8.0 0.00 0.00 0.00 59 1020.6
20260831092905 23 160 1.6 11.3 0.00 0.00 0.00 62 1020.6
20260831092405 22 102 3.2 11.3 0.00 0.00 0.00 63 1020.7
20260831091906 22 144 1.6 11.3 0.00 0.00 0.00 65 1020.7
20260831091405 22 133 1.6 14.5 0.00 0.00 0.00 65 1020.6
20260831090905 22 138 1.6 11.3 0.00 0.00 0.00 65 1020.7
20260831090405 21 16 1.6 12.9 0.00 0.00 0.00 66 1020.6
20260831085405 21 132 0.0 9.7 0.00 0.00 0.00 67 1020.8
20260831084905 21 92 1.6 11.3 0.00 0.00 0.00 67 1020.8
20260831084405 21 140 0.0 4.8 0.00 0.00 0.00 68 1020.9
20260831083905 21 101 3.2 19.3 0.00 0.00 0.00 69 1020.9
20260831083405 20 143 0.0 11.3 0.00 0.00 0.00 72 1020.9
20260831082904 20 103 0.0 8.0 0.00 0.00 0.00 72 1020.8
20260831081905 20 123 0.0 8.0 0.00 0.00 0.00 77 1020.7